TimeCDT,TemperatureF,Dew PointF,Humidity,Sea Level PressureIn,VisibilityMPH,Wind Direction,Wind SpeedMPH,Gust SpeedMPH,PrecipitationIn,Events,Conditions,WindDirDegrees,DateUTC
12:15 AM,41.0,37.4,87,29.98,10.0,Calm,Calm,-,N/A,,Clear,0,2012-10-04 05:15:00
12:35 AM,37.4,35.6,93,29.98,10.0,NE,3.5,-,N/A,,Clear,50,2012-10-04 05:35:00
12:55 AM,37.4,35.6,93,29.98,10.0,NE,3.5,-,N/A,,Clear,50,2012-10-04 05:55:00
1:15 AM,37.4,35.6,93,29.98,10.0,ENE,3.5,-,N/A,,Clear,60,2012-10-04 06:15:00
1:35 AM,39.2,37.4,93,29.97,10.0,ENE,3.5,-,N/A,,Clear,60,2012-10-04 06:35:00
1:55 AM,39.2,37.4,93,29.97,10.0,Calm,Calm,-,N/A,,Clear,0,2012-10-04 06:55:00
2:15 AM,37.4,37.4,100,29.96,10.0,ENE,3.5,-,N/A,,Clear,60,2012-10-04 07:15:00
2:35 AM,37.4,37.4,100,29.96,10.0,Calm,Calm,-,N/A,,Clear,0,2012-10-04 07:35:00
2:55 AM,37.4,37.4,100,29.95,10.0,Calm,Calm,-,N/A,,Clear,0,2012-10-04 07:55:00
3:15 AM,37.4,37.4,100,29.95,10.0,Calm,Calm,-,N/A,,Clear,0,2012-10-04 08:15:00
3:35 AM,37.4,35.6,93,29.94,10.0,NE,3.5,-,N/A,,Clear,50,2012-10-04 08:35:00
3:55 AM,37.4,35.6,93,29.94,10.0,NE,3.5,-,N/A,,Clear,50,2012-10-04 08:55:00
4:15 AM,37.4,35.6,93,29.93,10.0,NE,3.5,-,N/A,,Clear,50,2012-10-04 09:15:00
4:35 AM,37.4,35.6,93,29.93,10.0,Calm,Calm,-,N/A,,Clear,0,2012-10-04 09:35:00
4:55 AM,35.6,35.6,100,29.93,10.0,ENE,3.5,-,N/A,,Scattered Clouds,60,2012-10-04 09:55:00
5:15 AM,37.4,37.4,100,29.92,7.0,Calm,Calm,-,N/A,,Scattered Clouds,0,2012-10-04 10:15:00
5:35 AM,37.4,37.4,100,29.91,5.0,Calm,Calm,-,N/A,,Clear,0,2012-10-04 10:35:00
5:55 AM,37.4,37.4,100,29.91,5.0,Calm,Calm,-,N/A,,Clear,0,2012-10-04 10:55:00
6:15 AM,37.4,37.4,100,29.91,7.0,Calm,Calm,-,N/A,,Clear,0,2012-10-04 11:15:00
6:35 AM,37.4,37.4,100,29.90,4.0,Calm,Calm,-,N/A,,Clear,0,2012-10-04 11:35:00
6:55 AM,37.4,37.4,100,29.89,2.5,Calm,Calm,-,N/A,,Clear,0,2012-10-04 11:55:00
7:15 AM,37.4,37.4,100,29.89,3.0,Calm,Calm,-,N/A,,Clear,0,2012-10-04 12:15:00
7:35 AM,39.2,39.2,100,29.89,4.0,Calm,Calm,-,N/A,,Clear,0,2012-10-04 12:35:00
7:55 AM,44.6,42.8,93,29.88,10.0,SE,4.6,-,N/A,,Clear,130,2012-10-04 12:55:00
8:15 AM,48.2,46.4,93,29.86,10.0,Calm,Calm,-,N/A,,Clear,0,2012-10-04 13:15:00
8:35 AM,51.8,46.4,82,29.86,10.0,South,3.5,-,N/A,,Clear,170,2012-10-04 13:35:00
8:55 AM,55.4,48.2,77,29.86,10.0,South,8.1,-,N/A,,Clear,190,2012-10-04 13:55:00
9:15 AM,59.0,48.2,67,29.86,10.0,SSW,6.9,-,N/A,,Scattered Clouds,200,2012-10-04 14:15:00
9:35 AM,59.0,46.4,63,29.85,10.0,SSW,8.1,-,N/A,,Scattered Clouds,210,2012-10-04 14:35:00
9:55 AM,59.0,46.4,63,29.85,7.0,SW,15.0,23.0,N/A,,Mostly Cloudy,220,2012-10-04 14:55:00
10:15 AM,59.0,46.4,63,29.86,10.0,SW,15.0,23.0,N/A,,Mostly Cloudy,220,2012-10-04 15:15:00
10:35 AM,60.8,46.4,59,29.85,10.0,SW,13.8,21.9,N/A,,Mostly Cloudy,220,2012-10-04 15:35:00
10:55 AM,59.0,44.6,59,29.86,10.0,SW,13.8,23.0,N/A,,Clear,230,2012-10-04 15:55:00
11:15 AM,59.0,44.6,59,29.87,10.0,West,18.4,25.3,N/A,,Scattered Clouds,260,2012-10-04 16:15:00
11:35 AM,55.4,42.8,63,29.88,10.0,SW,15.0,25.3,N/A,,Scattered Clouds,230,2012-10-04 16:35:00
11:55 AM,57.2,42.8,59,29.88,10.0,WSW,12.7,28.8,N/A,,Scattered Clouds,250,2012-10-04 16:55:00
12:15 PM,57.2,41.0,55,29.88,10.0,West,13.8,20.7,N/A,,Scattered Clouds,260,2012-10-04 17:15:00
12:35 PM,57.2,41.0,55,29.88,10.0,WSW,11.5,21.9,N/A,,Clear,240,2012-10-04 17:35:00
12:55 PM,59.0,39.2,48,29.88,10.0,WSW,13.8,25.3,N/A,,Clear,250,2012-10-04 17:55:00
1:15 PM,59.0,39.2,48,29.87,10.0,SW,15.0,23.0,N/A,,Clear,230,2012-10-04 18:15:00
1:35 PM,59.0,37.4,45,29.88,10.0,West,17.3,21.9,N/A,,Clear,270,2012-10-04 18:35:00
1:55 PM,60.8,37.4,42,29.87,10.0,West,19.6,27.6,N/A,,Clear,260,2012-10-04 18:55:00
2:15 PM,59.0,35.6,42,29.88,10.0,West,24.2,29.9,N/A,,Clear,270,2012-10-04 19:15:00
2:35 PM,59.0,35.6,42,29.88,10.0,WSW,20.7,28.8,N/A,,Clear,240,2012-10-04 19:35:00
2:55 PM,59.0,33.8,39,29.89,10.0,West,21.9,26.5,N/A,,Clear,270,2012-10-04 19:55:00
3:15 PM,57.2,33.8,41,29.90,10.0,West,23.0,31.1,N/A,,Clear,260,2012-10-04 20:15:00
3:35 PM,59.0,33.8,39,29.90,10.0,WSW,20.7,29.9,N/A,,Clear,250,2012-10-04 20:35:00
3:55 PM,55.4,33.8,44,29.91,10.0,West,26.5,33.4,N/A,,Clear,270,2012-10-04 20:55:00
4:15 PM,55.4,32.0,41,29.91,10.0,WSW,20.7,26.5,N/A,,Clear,250,2012-10-04 21:15:00
4:35 PM,53.6,32.0,44,29.91,10.0,West,21.9,32.2,N/A,,Clear,260,2012-10-04 21:35:00
4:55 PM,53.6,32.0,44,29.92,10.0,West,23.0,33.4,N/A,,Clear,270,2012-10-04 21:55:00
5:35 PM,51.8,32.0,47,29.94,10.0,West,19.6,29.9,N/A,,Clear,280,2012-10-04 22:35:00
5:55 PM,50.0,32.0,50,29.95,10.0,West,12.7,18.4,N/A,,Clear,260,2012-10-04 22:55:00
6:15 PM,48.2,32.0,54,29.95,10.0,West,19.6,25.3,N/A,,Clear,270,2012-10-04 23:15:00
6:35 PM,46.4,32.0,57,29.95,10.0,West,13.8,21.9,N/A,,Clear,270,2012-10-04 23:35:00
6:55 PM,46.4,32.0,57,29.96,10.0,West,13.8,24.2,N/A,,Clear,270,2012-10-04 23:55:00
7:15 PM,44.6,32.0,61,29.97,10.0,West,11.5,-,N/A,,Clear,270,2012-10-05 00:15:00
7:35 PM,44.6,32.0,61,29.98,10.0,West,11.5,19.6,N/A,,Scattered Clouds,270,2012-10-05 00:35:00
8:15 PM,44.6,30.2,57,29.99,10.0,West,15.0,25.3,N/A,,Overcast,270,2012-10-05 01:15:00
8:35 PM,44.6,30.2,57,29.99,10.0,West,20.7,31.1,N/A,,Overcast,280,2012-10-05 01:35:00
9:15 PM,42.8,30.2,61,29.99,10.0,West,17.3,24.2,N/A,,Overcast,270,2012-10-05 02:15:00
9:35 PM,42.8,30.2,61,30.00,10.0,West,16.1,21.9,N/A,,Overcast,270,2012-10-05 02:35:00
9:55 PM,42.8,30.2,61,30.00,10.0,West,15.0,21.9,N/A,,Overcast,270,2012-10-05 02:55:00
10:15 PM,42.8,30.2,61,30.00,10.0,West,11.5,19.6,N/A,,Overcast,280,2012-10-05 03:15:00
10:35 PM,42.8,30.2,61,30.00,10.0,West,12.7,19.6,N/A,,Mostly Cloudy,280,2012-10-05 03:35:00
10:55 PM,41.0,28.4,61,30.00,10.0,West,15.0,21.9,N/A,,Mostly Cloudy,280,2012-10-05 03:55:00
11:15 PM,41.0,28.4,61,30.00,10.0,West,9.2,-,N/A,,Mostly Cloudy,280,2012-10-05 04:15:00
11:35 PM,41.0,28.4,61,30.00,10.0,WNW,10.4,21.9,N/A,,Mostly Cloudy,290,2012-10-05 04:35:00
11:55 PM,41.0,28.4,61,30.01,10.0,West,10.4,18.4,N/A,,Mostly Cloudy,280,2012-10-05 04:55:00